This demonstration page uses our WeatherBlox Daily Observations layout. Learn more.

Left ArrowRight Arrow

41.12389, -100.76542

Hourly Observations for September 4, 2016

Temp ( °F °C ) Dew Point ( °F °C ) Humidity (%) Winds ( mph kmh ) Pressure ( in mb ) Visibility ( mi km ) Precip ( " mm )
12:53 am 00:53 Clear 66 18.9 58 14.4 75 75 SSE 8 13 29.80 1009 10 16 0.00 0.00
1:53 am 01:53 Clear 67 19.4 58 14.4 73 73 S 14 22 29.79 1009 10 16 0.00 0.00
2:53 am 02:53 Clear 64 17.8 57 13.9 78 78 ESE 5 7 29.78 1008 10 16 0.00 0.00
3:33 am 03:33 Mostly Cloudy 63 17 59 15 88 88 ESE 6 9 29.80 1009 10 16 0.00 0.00
3:53 am 03:53 Cloudy 66 18.9 61 16.1 84 84 ESE 10 17 29.79 1009 10 16 0.00 0.00
4:53 am 04:53 Cloudy 66 18.9 62 16.7 87 87 SE 10 17 29.78 1008 10 16 0.00 0.00
5:53 am 05:53 Cloudy 66 18.9 63 17.2 90 90 SSE 7 11 29.78 1009 10 16 0.00 0.00
6:53 am 06:53 Cloudy 66 18.9 63 17.2 90 90 SSE 10 17 29.75 1008 10 16 0.00 0.00
7:13 am 07:13 Partly Cloudy 65 18.3 62 16.7 90 90 SE 7 11 29.74 1007 10 16 0.00 0.00
7:53 am 07:53 Sunny 65 18.3 62 16.7 90 90 SE 7 11 29.76 1008 10 16 0.00 0.00
8:53 am 08:53 Mostly Cloudy 68 20 63 17.2 84 84 ESE 3 6 29.78 1009 10 16 0.00 0.00
9:09 am 09:09 Mostly Cloudy 68 20 63 17 83 83 SE 5 7 29.74 1007 10 16 0.00 0.00
9:53 am 09:53 Cloudy 70 21.1 63 17.2 79 79 SE 9 15 29.77 1008 10 16 0.00 0.00
10:53 am 10:53 Cloudy 72 22.2 64 17.8 76 76 S 9 15 29.77 1008 10 16 0.00 0.00
11:53 am 11:53 Cloudy 74 23.3 65 18.3 74 74 S 14 22 29.76 1008 10 16 0.00 0.00
12:46 pm 12:46 Cloudy 73 23 66 19 78 78 SE 8 13 29.71 1006 10 16 0.00 0.00
12:53 pm 12:53 Cloudy 75 23.9 66 18.9 74 74 ESE 8 13 29.75 1007 10 16 0.00 0.00
1:53 pm 13:53 Cloudy 78 25.6 67 19.4 69 69 ESE 10 17 29.72 1006 10 16 0.00 0.00
2:00 pm 14:00 Cloudy 79 26.1 68 20 69 69 ESE 10 17 29.65 1004 10 16 0.00 0.00
2:53 pm 14:53 Cloudy 82 27.8 66 18.9 58 58 SSE 9 15 29.70 1006 10 16 0.00 0.00
3:04 pm 15:04 Mostly Cloudy 82 28 66 19 58 58 SSE 8 13 29.59 1002 10 16 0.00 0.00
3:53 pm 15:53 Mostly Sunny 86 30 66 18.9 51 51 SSE 8 13 29.67 1005 10 16 0.00 0.00
4:53 pm 16:53 Partly Cloudy 88 31.1 68 20 52 52 SE 13 20 29.63 1004 10 16 0.00 0.00
5:53 pm 17:53 Mostly Cloudy 82 27.8 70 21.1 67 67 ESE 15 24 29.62 1003 10 16 0.00 0.00
6:53 pm 18:53 Mostly Sunny 81 27.2 71 21.7 72 72 ESE 5 7 29.60 1003 10 16 0.00 0.00
7:53 pm 19:53 Sunny 81 27.2 68 20 65 65 SSE 9 15 29.59 1002 10 16 0.00 0.00
8:53 pm 20:53 Clear 80 26.7 68 20 67 67 SE 10 17 29.58 1002 10 16 0.00 0.00
9:53 pm 21:53 Clear 80 26.7 65 18.3 60 60 S 21 33 29.59 1002 10 16 0.00 0.00
10:53 pm 22:53 Clear with Light Rain 78 25.6 60 15.6 54 54 SSW 9 15 29.68 1005 10 16 0.00 0.03
11:53 pm 23:53 Partly Cloudy 74 23.3 62 16.7 67 67 WSW 6 9 29.68 1005 10 16 0.00 0.03

Powered by AerisWeather